Regional Weather Roundup
Issued by NWS Tiyan, Guam

Home | Current Version | Previous Version | Text Only | Print | Product List | Glossary On
Versions: 1 2 3 4 5 6 7 8 9 10 11 12 13 14 15 16 17 18 19 20 21 22 23 24 25 26 27
000
ASGM40 PGUM 210212
RWRGUM
WEATHER ROUNDUP FOR THE MARIANAS
NATIONAL WEATHER SERVICE TIYAN GU
1200 PM CHST SAT OCT 21 2017

GUZ001>004-210300-
MARIANA ISLANDS-

CITY           SKY/WX    TMP DP  RH WIND       PRES   REMARKS
GUAM AIRPORT   SUNNY     88  79  74 N12       29.81F HX 102
ANDERSEN AFB   PTSUNNY   86  77  74 N10       29.81F HX  97
ROTA AIRPORT   MOSUNNY   84  77  79 N8        29.79F HX  94
TINIAN AP      MOSUNNY   86  77  74 NE7       29.77F HX  97
SAIPAN AP      MOSUNNY   88  81  79 NE7       29.78F HX 105

$$





USA.gov is the U.S. government's official web portal to all federal, state and local government web resources and services.